GW5945 Weather Reports


time (UTC)temp
C
wind
direction
speed
KPH
gust
KPH
rain 1hr
cm
rain 24hr
cm
rain mn
cm
humidity
%
barometer
mb
20260508115317 0 102 0.0 0.0 0.00 0.00 0.00 91 1021.8
20260508114819 0 117 0.0 0.0 0.00 0.00 0.00 91 1021.7
20260508114329 0 117 0.0 0.0 0.00 0.00 0.00 91 1021.7
20260508113811 0 117 0.0 0.0 0.00 0.00 0.00 90 1021.6
20260508113314 0 117 0.0 0.0 0.00 0.00 0.00 89 1021.6
20260508112823 0 117 0.0 0.0 0.00 0.00 0.00 89 1021.6
20260508112326 1 117 0.0 0.0 0.00 0.00 0.00 89 1021.6
20260508111827 1 117 0.0 0.0 0.00 0.00 0.00 88 1021.6
20260508111317 1 117 0.0 0.0 0.00 0.00 0.00 89 1021.5
20260508110818 1 301 0.0 0.0 0.00 0.00 0.00 91 1021.5
20260508110320 1 300 0.0 3.2 0.00 0.00 0.00 90 1021.6
20260508105828 1 300 0.0 4.8 0.00 0.00 0.00 89 1021.5
20260508105330 1 316 1.6 4.8 0.00 0.00 0.00 90 1021.4
20260508104832 0 302 1.6 6.4 0.00 0.00 0.00 92 1021.3
20260508104343 0 359 3.2 6.4 0.00 0.00 0.00 93 1021.3
20260508103824 0 333 3.2 4.8 0.00 0.00 0.00 93 1021.2
20260508103325 0 27 3.2 4.8 0.00 0.00 0.00 93 1021.2
20260508102815 0 43 0.0 3.2 0.00 0.00 0.00 93 1021.2
20260508102316 0 43 1.6 4.8 0.00 0.00 0.00 93 1021.2
20260508101819 0 245 1.6 6.4 0.00 0.00 0.00 93 1021.3
20260508101326 0 52 1.6 6.4 0.00 0.00 0.00 93 1021.2
20260508100827 0 12 3.2 6.4 0.00 0.00 0.00 93 1021.2
20260508100324 0 336 1.6 3.2 0.00 0.00 0.00 92 1021.2
20260508095814 0 54 1.6 3.2 0.00 0.00 0.00 93 1021.0
20260508095315 0 62 0.0 3.2 0.00 0.00 0.00 93 1021.0
20260508094818 0 321 1.6 6.4 0.00 0.00 0.00 93 1021.0
20260508094326 1 336 1.6 6.4 0.00 0.00 0.00 93 1020.9
20260508093826 1 51 0.0 6.4 0.00 0.00 0.00 93 1020.9
20260508093329 0 70 3.2 6.4 0.00 0.00 0.00 92 1021.0
20260508092820 0 304 0.0 3.2 0.00 0.00 0.00 92 1021.2
20260508092321 0 151 0.0 3.2 0.00 0.00 0.00 92 1021.1
20260508091821 0 54 0.0 4.8 0.00 0.00 0.00 92 1021.1
20260508091312 0 53 0.0 3.2 0.00 0.00 0.00 91 1020.9
20260508090811 1 333 1.6 3.2 0.00 0.00 0.00 92 1020.9
20260508090332 0 50 0.0 4.8 0.00 0.00 0.00 91 1020.9
20260508085823 0 49 3.2 4.8 0.00 0.00 0.00 91 1021.1
20260508085325 1 240 3.2 4.8 0.00 0.00 0.00 91 1021.3
20260508084825 1 73 1.6 3.2 0.00 0.00 0.00 90 1021.1
20260508084316 1 41 1.6 4.8 0.00 0.00 0.00 90 1021.3
20260508083818 1 229 3.2 4.8 0.00 0.00 0.00 89 1021.4
20260508083319 1 89 0.0 0.0 0.00 0.00 0.00 88 1021.2
20260508082827 2 89 0.0 0.0 0.00 0.00 0.00 88 1021.3
20260508082330 2 89 0.0 0.0 0.00 0.00 0.00 88 1021.5
20260508081847 2 89 0.0 1.6 0.00 0.00 0.00 88 1021.6
20260508081317 2 89 1.6 3.2 0.00 0.00 0.00 87 1021.6
20260508080819 2 89 1.6 4.8 0.00 0.00 0.00 86 1021.7
20260508080340 2 158 1.6 6.4 0.00 0.00 0.00 88 1021.5
20260508075824 2 32 3.2 6.4 0.00 0.00 0.00 88 1021.6
20260508075326 2 279 0.0 6.4 0.00 0.00 0.00 87 1021.4
20260508074827 2 74 0.0 3.2 0.00 0.00 0.00 87 1021.5
20260508074315 2 18 0.0 4.8 0.00 0.00 0.00 87 1021.8
20260508073819 2 34 3.2 6.4 0.00 0.00 0.00 86 1022.0
20260508073319 2 274 1.6 4.8 0.00 0.00 0.00 87 1022.4
20260508072830 2 82 1.6 4.8 0.00 0.00 0.00 89 1022.3
20260508072312 2 282 0.0 4.8 0.00 0.00 0.00 89 1022.2
20260508071814 2 271 0.0 4.8 0.00 0.00 0.00 89 1021.9
20260508071323 2 316 0.0 4.8 0.00 0.00 0.00 89 1021.8
20260508070825 2 285 3.2 4.8 0.00 0.00 0.00 89 1021.7
20260508070325 2 89 0.0 3.2 0.00 0.00 0.00 88 1021.6
20260508065815 2 73 0.0 4.8 0.00 0.00 0.00 89 1021.7
20260508065317 2 20 3.2 4.8 0.00 0.00 0.00 90 1021.7
20260508064818 2 354 3.2 4.8 0.00 0.00 0.00 89 1021.7
20260508064325 2 320 1.6 4.8 0.00 0.00 0.00 89 1021.8
20260508063826 2 79 0.0 0.0 0.00 0.00 0.00 88 1021.8
20260508063328 2 79 0.0 0.0 0.00 0.00 0.00 88 1021.8
20260508062819 2 44 0.0 0.0 0.00 0.00 0.00 89 1021.9
20260508062321 2 41 0.0 0.0 0.00 0.00 0.00 90 1021.8
20260508061823 2 19 0.0 3.2 0.00 0.00 0.00 89 1021.8
20260508061312 2 19 0.0 4.8 0.00 0.00 0.00 89 1021.8
20260508060834 2 354 1.6 3.2 0.00 0.00 0.00 88 1021.8
20260508060334 2 354 1.6 3.2 0.00 0.00 0.00 88 1021.8
20260508055816 3 345 0.0 0.0 0.00 0.00 0.00 87 1021.9
20260508055317 3 39 0.0 0.0 0.00 0.00 0.00 87 1021.8
20260508054818 3 357 0.0 0.0 0.00 0.00 0.00 86 1022.0
20260508054331 3 101 0.0 1.6 0.00 0.00 0.00 86 1022.1
20260508053813 4 252 0.0 4.8 0.00 0.00 0.00 85 1022.1
20260508053334 4 219 1.6 4.8 0.00 0.00 0.00 84 1022.1
20260508052826 5 41 1.6 6.4 0.00 0.00 0.00 83 1022.3
20260508052328 5 346 0.0 11.3 0.00 0.00 0.00 82 1022.6
20260508051830 5 284 4.8 11.3 0.00 0.00 0.00 79 1022.7
20260508051341 5 308 1.6 3.2 0.00 0.00 0.00 78 1022.7
20260508050841 5 346 0.0 4.8 0.00 0.00 0.00 76 1022.3
20260508050321 4 9 0.0 4.8 0.00 0.00 0.00 76 1021.9
20260508045812 5 349 0.0 1.6 0.00 0.00 0.00 75 1021.7
20260508045314 5 349 0.0 3.2 0.00 0.00 0.00 74 1021.7
20260508044831 5 325 1.6 3.2 0.00 0.00 0.00 72 1021.6
20260508044319 5 39 0.0 4.8 0.00 0.00 0.00 72 1021.7
20260508043842 5 37 0.0 4.8 0.00 0.00 0.00 73 1021.7
20260508043321 5 57 3.2 4.8 0.00 0.00 0.00 73 1021.5
20260508042812 5 193 0.0 3.2 0.00 0.00 0.00 72 1021.6
20260508042314 6 242 0.0 3.2 0.00 0.00 0.00 71 1021.5
20260508041815 6 81 0.0 1.6 0.00 0.00 0.00 69 1021.4
20260508041323 6 25 0.0 3.2 0.00 0.00 0.00 70 1021.5
20260508040825 6 17 1.6 4.8 0.00 0.00 0.00 69 1021.6
20260508040348 6 70 0.0 4.8 0.00 0.00 0.00 69 1021.8
20260508035817 6 63 3.2 4.8 0.00 0.00 0.00 69 1021.9
20260508035339 6 41 1.6 8.0 0.00 0.00 0.00 69 1022.0
20260508034821 6 8 1.6 8.0 0.00 0.00 0.00 69 1022.1
20260508034330 6 354 3.2 4.8 0.00 0.00 0.00 69 1022.0
20260508033811 6 136 1.6 3.2 0.00 0.00 0.00 68 1021.6
20260508033314 6 141 1.6 6.4 0.00 0.00 0.00 66 1021.4
20260508032830 6 148 1.6 6.4 0.00 0.00 0.00 66 1021.5
20260508032333 6 306 1.6 3.2 0.00 0.00 0.00 67 1021.4
20260508031832 6 124 0.0 6.4 0.00 0.00 0.00 66 1021.4
20260508031322 7 104 1.6 6.4 0.00 0.00 0.00 66 1021.4
20260508030823 7 156 3.2 8.0 0.00 0.00 0.00 64 1021.3
20260508030326 7 235 0.0 8.0 0.00 0.00 0.00 64 1021.4
20260508025816 6 32 3.2 6.4 0.00 0.00 0.00 67 1021.3
20260508025317 6 133 0.0 4.8 0.00 0.00 0.00 68 1021.4
20260508024818 7 153 1.6 9.7 0.00 0.00 0.00 67 1021.2
20260508024329 7 159 3.2 12.9 0.00 0.00 0.00 66 1021.3
20260508023811 7 214 1.6 14.5 0.00 0.00 0.00 65 1021.3
20260508023334 7 291 8.0 14.5 0.00 0.00 0.00 65 1021.2
20260508022823 6 193 6.4 12.9 0.00 0.00 0.00 68 1021.4
20260508022325 6 153 6.4 11.3 0.00 0.00 0.00 69 1021.3
20260508021826 7 184 3.2 9.7 0.00 0.00 0.00 68 1021.4
20260508021314 7 172 1.6 14.5 0.00 0.00 0.00 66 1021.5
20260508020835 7 172 3.2 14.5 0.00 0.00 0.00 64 1021.5
20260508020337 8 235 4.8 12.9 0.00 0.00 0.00 62 1021.5
20260508015826 8 270 3.2 19.3 0.00 0.00 0.00 58 1021.3
20260508015328 8 186 6.4 19.3 0.00 0.00 0.00 56 1021.6
20260508014829 9 149 8.0 24.1 0.00 0.00 0.00 53 1021.4
20260508014320 9 191 9.7 24.1 0.00 0.00 0.00 51 1021.4
20260508013821 10 143 4.8 12.9 0.00 0.00 0.00 50 1021.1
20260508013343 10 141 6.4 11.3 0.00 0.00 0.00 48 1021.0
20260508012812 10 136 6.4 11.3 0.00 0.00 0.00 48 1020.8
20260508012314 10 158 1.6 8.0 0.00 0.00 0.00 46 1020.7
20260508011817 11 156 3.2 11.3 0.00 0.00 0.00 45 1020.6
20260508011324 11 291 3.2 16.1 0.00 0.00 0.00 45 1020.8
20260508010812 11 184 3.2 14.5 0.00 0.00 0.00 44 1020.8
20260508010329 11 215 4.8 11.3 0.00 0.00 0.00 42 1020.7
20260508005840 11 267 4.8 12.9 0.00 0.00 0.00 42 1020.7
20260508005321 11 306 3.2 12.9 0.00 0.00 0.00 42 1020.6
20260508004823 11 284 4.8 17.7 0.00 0.00 0.00 42 1020.6
20260508004313 12 225 3.2 8.0 0.00 0.00 0.00 41 1020.5
20260508003836 12 280 0.0 0.0 0.00 0.00 0.00 41 1020.3
20260508003316 12 1 0.0 1.6 0.00 0.00 0.00 37 1020.1
20260508002844 12 124 0.0 3.2 0.00 0.00 0.00 38 1020.0
20260508002325 12 124 1.6 3.2 0.00 0.00 0.00 36 1019.8
20260508001826 12 148 0.0 4.8 0.00 0.00 0.00 38 1019.8
20260508001316 12 148 0.0 6.4 0.00 0.00 0.00 36 1019.7
20260508000838 13 219 4.8 11.3 0.00 0.00 0.00 37 1019.8
20260508000320 13 285 1.6 9.7 0.00 0.00 0.00 34 1019.7
20260507235848 13 307 1.6 9.7 0.00 0.00 0.00 35 1019.8
20260507235310 14 300 3.2 4.8 0.00 0.00 0.00 33 1019.9
20260507234833 14 23 1.6 11.3 0.00 0.00 0.00 33 1019.7
20260507234342 13 319 3.2 14.5 0.00 0.00 0.00 35 1019.8
20260507233822 13 270 4.8 16.1 0.00 0.00 0.00 35 1019.8
20260507233323 13 245 9.7 16.1 0.00 0.00 0.00 34 1020.1
20260507232813 13 259 6.4 17.7 0.00 0.00 0.00 36 1020.1
20260507232316 12 264 3.2 11.3 0.00 0.00 0.00 37 1019.9
20260507231819 11 127 3.2 9.7 0.00 0.00 0.00 44 1019.7
20260507231326 10 122 8.0 9.7 0.00 0.00 0.00 45 1019.8
20260507230848 10 45 1.6 4.8 0.00 0.00 0.00 47 1019.9
20260507230328 10 277 0.0 0.0 0.00 0.00 0.00 47 1020.0
20260507225820 10 243 0.0 0.0 0.00 0.00 0.00 48 1020.0
20260507225321 10 59 0.0 0.0 0.00 0.00 0.00 47 1019.9
20260507224822 11 60 0.0 0.0 0.00 0.00 0.00 44 1019.9
20260507224311 11 50 0.0 0.0 0.00 0.00 0.00 44 1020.0
20260507223813 11 49 0.0 0.0 0.00 0.00 0.00 43 1020.0
20260507223335 11 50 0.0 0.0 0.00 0.00 0.00 42 1019.9
20260507222823 11 50 0.0 0.0 0.00 0.00 0.00 43 1020.0
20260507222324 11 50 0.0 0.0 0.00 0.00 0.00 40 1020.0
20260507221826 11 47 0.0 0.0 0.00 0.00 0.00 40 1020.0
20260507221350 11 41 0.0 3.2 0.00 0.00 0.00 41 1020.1
20260507220830 11 323 1.6 6.4 0.00 0.00 0.00 38 1020.2
20260507220352 11 345 3.2 6.4 0.00 0.00 0.00 38 1020.3
20260507215821 11 27 1.6 8.0 0.00 0.00 0.00 39 1020.2
20260507215324 11 332 6.4 8.0 0.00 0.00 0.00 39 1020.4
20260507214825 11 113 8.0 8.0 0.00 0.00 0.00 38 1020.4
20260507214314 12 153 1.6 8.0 0.00 0.00 0.00 38 1020.6
20260507213837 11 122 4.8 8.0 0.00 0.00 0.00 40 1020.7
20260507213316 11 95 0.0 0.0 0.00 0.00 0.00 42 1020.7
20260507212823 10 94 0.0 1.6 0.00 0.00 0.00 45 1020.9
20260507212327 10 101 0.0 11.3 0.00 0.00 0.00 45 1020.8
20260507211828 10 101 1.6 11.3 0.00 0.00 0.00 41 1020.9
20260507211316 10 122 1.6 11.3 0.00 0.00 0.00 41 1021.0
20260507210817 10 139 0.0 0.0 0.00 0.00 0.00 47 1021.1
20260507210319 10 139 0.0 1.6 0.00 0.00 0.00 44 1021.1
20260507205824 10 138 0.0 1.6 0.00 0.00 0.00 40 1021.2
20260507205346 10 215 0.0 4.8 0.00 0.00 0.00 43 1021.3
20260507204826 10 153 0.0 1.6 0.00 0.00 0.00 46 1021.3
20260507204317 10 102 1.6 3.2 0.00 0.00 0.00 46 1021.3
20260507203837 10 104 1.6 3.2 0.00 0.00 0.00 41 1021.5
20260507203319 10 5 0.0 4.8 0.00 0.00 0.00 41 1021.5
20260507202828 10 239 1.6 6.4 0.00 0.00 0.00 43 1021.6
20260507202311 10 331 1.6 6.4 0.00 0.00 0.00 44 1021.6
20260507201832 10 226 3.2 6.4 0.00 0.00 0.00 43 1021.6
20260507201342 10 125 3.2 6.4 0.00 0.00 0.00 42 1021.7
20260507200840 10 141 1.6 8.0 0.00 0.00 0.00 42 1021.8
20260507200321 10 256 3.2 9.7 0.00 0.00 0.00 42 1021.7
20260507195812 10 249 4.8 11.3 0.00 0.00 0.00 42 1021.8
20260507195335 10 358 3.2 6.4 0.00 0.00 0.00 42 1021.8
20260507194836 10 212 4.8 6.4 0.00 0.00 0.00 43 1021.7
20260507194326 10 126 0.0 4.8 0.00 0.00 0.00 43 1021.8
20260507193826 10 130 0.0 4.8 0.00 0.00 0.00 44 1021.8
20260507193341 10 278 1.6 9.7 0.00 0.00 0.00 45 1021.7
20260507192826 10 335 3.2 6.4 0.00 0.00 0.00 44 1021.8
20260507192329 10 122 0.0 4.8 0.00 0.00 0.00 43 1022.0
20260507191823 10 122 1.6 4.8 0.00 0.00 0.00 43 1022.0
20260507191329 10 277 0.0 4.8 0.00 0.00 0.00 42 1022.0
20260507190339 10 352 3.2 17.7 0.00 0.00 0.00 43 1022.2
20260507185824 10 199 8.0 17.7 0.00 0.00 0.00 42 1022.3
20260507185327 10 236 1.6 8.0 0.00 0.00 0.00 43 1022.4
20260507184826 10 349 4.8 12.9 0.00 0.00 0.00 42 1022.4
20260507184316 10 77 1.6 12.9 0.00 0.00 0.00 42 1022.5
20260507183819 10 293 1.6 14.5 0.00 0.00 0.00 42 1022.5
20260507183338 11 34 4.8 14.5 0.00 0.00 0.00 40 1022.5
20260507182824 11 74 4.8 11.3 0.00 0.00 0.00 39 1022.6
20260507182324 10 304 3.2 12.9 0.00 0.00 0.00 43 1022.5
20260507181822 9 21 6.4 11.3 0.00 0.00 0.00 44 1022.6
20260507181313 8 46 3.2 11.3 0.00 0.00 0.00 45 1022.6
20260507180833 8 35 3.2 11.3 0.00 0.00 0.00 46 1022.6
20260507175844 7 347 0.0 4.8 0.00 0.00 0.00 49 1022.7
20260507175324 7 229 1.6 9.7 0.00 0.00 0.00 51 1022.6
20260507174828 7 75 3.2 9.7 0.00 0.00 0.00 50 1022.6
20260507174316 8 117 0.0 3.2 0.00 0.00 0.00 50 1022.4
20260507173819 8 72 1.6 4.8 0.00 0.00 0.00 49 1022.4
20260507173320 8 86 1.6 12.9 0.00 0.00 0.00 49 1022.3
20260507172824 8 166 3.2 12.9 0.00 0.00 0.00 48 1022.3
20260507172325 8 170 1.6 9.7 0.00 0.00 0.00 50 1022.3
20260507171848 7 181 4.8 8.0 0.00 0.00 0.00 50 1022.4
20260507171315 7 115 0.0 6.4 0.00 0.00 0.00 51 1022.5
20260507170818 8 253 1.6 4.8 0.00 0.00 0.00 49 1022.4
20260507170317 7 250 0.0 4.8 0.00 0.00 0.00 52 1022.4
20260507165827 7 148 0.0 8.0 0.00 0.00 0.00 52 1022.6
20260507165328 7 119 3.2 12.9 0.00 0.00 0.00 51 1022.7
20260507164828 7 142 4.8 12.9 0.00 0.00 0.00 52 1022.6
20260507164337 7 139 0.0 0.0 0.00 0.00 0.00 55 1022.8
20260507163818 7 139 0.0 4.8 0.00 0.00 0.00 55 1022.8
20260507163319 7 128 3.2 4.8 0.00 0.00 0.00 53 1022.7
20260507162826 7 153 1.6 8.0 0.00 0.00 0.00 53 1022.8
20260507162327 7 126 4.8 8.0 0.00 0.00 0.00 48 1022.7
20260507161830 6 139 0.0 12.9 0.00 0.00 0.00 51 1022.9
20260507161317 6 115 6.4 9.7 0.00 0.00 0.00 50 1023.2
20260507160819 6 276 0.0 3.2 0.00 0.00 0.00 52 1023.4
20260507160321 6 278 1.6 9.7 0.00 0.00 0.00 51 1023.4
20260507155829 6 5 3.2 9.7 0.00 0.00 0.00 51 1023.5
20260507155311 6 278 3.2 22.5 0.00 0.00 0.00 51 1023.6
20260507154813 6 257 6.4 22.5 0.00 0.00 0.00 51 1023.8
20260507154327 5 211 4.8 25.7 0.00 0.00 0.00 52 1023.7
20260507153830 5 246 9.7 17.7 0.00 0.00 0.00 52 1023.5
20260507153312 5 153 3.2 20.9 0.00 0.00 0.00 52 1023.4
20260507152849 5 301 11.3 27.4 0.00 0.00 0.00 51 1023.3
20260507152341 5 306 9.7 27.4 0.00 0.00 0.00 52 1023.3
20260507151820 5 308 11.3 33.8 0.00 0.00 0.00 54 1023.0
20260507151325 5 217 16.1 38.6 0.00 0.00 0.00 53 1023.0
20260507150827 5 301 16.1 38.6 0.00 0.00 0.00 53 1022.8
20260507150327 5 224 14.5 29.0 0.00 0.00 0.00 53 1022.9
20260507145816 5 239 8.0 22.5 0.00 0.00 0.00 52 1023.2
20260507145319 6 123 12.9 22.5 0.00 0.00 0.00 52 1023.3
20260507144821 6 233 8.0 17.7 0.00 0.00 0.00 51 1023.3
20260507144312 6 278 4.8 19.3 0.00 0.00 0.00 52 1023.2
20260507143813 6 278 8.0 22.5 0.00 0.00 0.00 51 1023.1
20260507143314 6 214 3.2 22.5 0.00 0.00 0.00 52 1022.9
20260507142845 6 239 6.4 19.3 0.00 0.00 0.00 52 1022.9
20260507142326 6 304 6.4 20.9 0.00 0.00 0.00 51 1022.9
20260507141827 6 287 11.3 22.5 0.00 0.00 0.00 50 1022.8
20260507141317 6 312 8.0 24.1 0.00 0.00 0.00 52 1023.0
20260507140820 6 308 11.3 24.1 0.00 0.00 0.00 52 1023.0
20260507140340 6 246 8.0 22.5 0.00 0.00 0.00 53 1023.1
20260507135828 6 257 9.7 19.3 0.00 0.00 0.00 52 1023.3
20260507135329 6 255 9.7 22.5 0.00 0.00 0.00 52 1023.1
20260507134829 6 169 6.4 25.7 0.00 0.00 0.00 53 1023.0
20260507134320 6 271 9.7 25.7 0.00 0.00 0.00 52 1023.0
20260507133821 6 278 8.0 27.4 0.00 0.00 0.00 53 1022.9
20260507133320 5 117 11.3 20.9 0.00 0.00 0.00 54 1022.9
20260507132848 5 249 9.7 20.9 0.00 0.00 0.00 55 1022.9
20260507132349 4 229 8.0 22.5 0.00 0.00 0.00 56 1022.9
20260507131829 3 13 8.0 20.9 0.00 0.00 0.00 57 1023.0
20260507131319 3 290 6.4 20.9 0.00 0.00 0.00 58 1023.0
20260507130840 3 120 6.4 20.9 0.00 0.00 0.00 58 1022.8
20260507130335 3 329 11.3 20.9 0.00 0.00 0.00 58 1022.8
20260507125826 3 44 6.4 12.9 0.00 0.00 0.00 59 1022.7
20260507125327 2 152 6.4 16.1 0.00 0.00 0.00 58 1022.6
20260507124828 3 254 6.4 16.1 0.00 0.00 0.00 57 1022.6
20260507124316 3 207 8.0 27.4 0.00 0.00 0.00 57 1022.6
20260507123838 3 249 12.9 27.4 0.00 0.00 0.00 58 1022.4
20260507123338 2 236 12.9 25.7 0.00 0.00 0.00 58 1022.3
20260507122826 2 226 6.4 25.7 0.00 0.00 0.00 59 1022.4
20260507122326 2 259 9.7 25.7 0.00 0.00 0.00 61 1022.3
20260507121828 1 287 12.9 25.7 0.00 0.00 0.00 61 1022.3
20260507121318 1 281 1.6 14.5 0.00 0.00 0.00 64 1022.2
20260507120819 1 219 6.4 11.3 0.00 0.00 0.00 63 1022.4
20260507120332 1 174 1.6 9.7 0.00 0.00 0.00 63 1022.6
20260507115819 0 178 3.2 6.4 0.00 0.00 0.00 66 1022.6